PILOTS ONLINE: 264    ATC ONLINE: 38

PANT

Annette Island Airport

Location

IATA ANN
City Annette
Country  United States
Latitude 55° 2' 32" N
Longitude 131° 34' 19" W
Elevation 119 ft
Type Medium Airport

Map

Weather

METAR
2014/10/02 01:53
PANT 020153Z 30003KT 10SM CLR 09/04 A3020 RMK AO2 SLP227 T00890039
TAF
No TAF available

Runways

02/20 5709 ft / 150 ft
12/30 7493 ft / 150 ft

Outbound flights

Callsign Flying to Pilot ATD/STD ETA Aircraft

Inbound flights

Callsign Flying from Pilot ATD ETA Aircraft